Wind_Speed
18 20 20 20 19 19 21 21 21 22 23 24 17 17 17 19 23 26 30 32 35 37 38 34 31 24 30 20 22 17 11 17 21 25 27 23 26 30 38 38 38 36 45 47
22 24 21 18 19 20 21 24 25 25 29 22 22 23 25 24 24 29 31 34 34 36 31 30 30 25 23 14 18 20 22 26 29 30 25 24 26 31 36 37 36 37 40 42
22 19 16 16 17 22 20 6 6 10 21 23 22 24 25 26 31 33 33 34 31 20 24 24 23 24 20 20 21 22 24 27 29 33 22 26 29 32 32 33 32 34 37 41
14 16 14 17 13 15 14 18 14 13 16 22 27 29 30 29 33 34 29 29 21 24 28 24 22 20 19 20 22 25 30 31 33 25 29 29 33 34 35 39 39 41 40 43
6 13 16 18 18 11 15 18 16 17 18 22 24 29 32 31 33 33 34 30 30 18 23 22 22 20 21 24 26 29 31 33 33 32 30 31 34 37 40 42 44 47 50 51
12 14 13 14 13 17 22 24 23 23 24 23 25 34 32 30 34 32 27 25 18 17 21 22 21 22 24 27 28 30 32 32 32 31 30 32 35 38 41 43 47 49 50 54
8 9 12 17 21 24 26 29 32 31 31 32 35 37 32 29 30 30 31 21 14 16 20 21 19 21 23 26 26 30 33 33 31 31 32 33 35 38 41 46 48 46 51 56
12 11 17 21 23 28 33 34 35 41 41 40 40 34 29 25 22 23 25 7 15 23 23 20 18 21 23 25 28 31 32 32 31 30 31 33 36 39 43 47 49 53 56 63
19 17 19 26 32 27 29 28 31 34 35 37 34 26 25 20 27 32 28 18 17 17 21 18 19 22 25 27 27 30 32 31 31 33 35 35 36 39 44 50 50 56 62 70
23 25 25 24 26 29 29 29 26 28 34 33 28 26 24 22 23 17 20 20 13 15 16 15 17 21 23 24 27 29 30 31 33 33 31 34 37 40 45 48 52 58 64 67
27 29 30 27 28 29 32 30 28 29 26 27 24 15 19 19 16 13 15 16 16 17 15 16 17 19 22 22 24 26 26 28 29 29 32 35 37 40 44 48 52 55 62 65
31 31 30 28 29 26 28 28 27 18 16 23 21 11 15 13 12 17 18 17 17 17 15 17 18 20 21 22 22 23 23 24 27 30 33 36 38 40 44 46 48 52 58 62
29 31 30 27 27 27 25 27 27 21 27 27 27 15 15 14 14 17 20 17 17 16 16 17 17 19 21 21 22 22 21 23 28 30 33 36 38 40 42 43 45 48 55 57
34 30 27 31 29 27 30 29 27 28 21 17 16 15 15 16 16 20 21 18 20 20 20 19 18 20 22 20 22 22 22 24 28 31 33 36 39 40 41 39 42 46 49 52
32 31 30 28 30 29 29 22 22 21 20 26 14 15 15 19 18 19 19 19 23 23 23 22 21 22 24 24 22 22 22 23 26 29 32 34 36 38 39 38 40 42 43 47
31 28 19 16 24 25 21 25 23 25 16 20 19 22 28 24 22 23 24 24 25 26 25 25 23 22 24 24 24 23 23 23 24 27 29 31 33 35 37 38 38 38 39 40
25 21 24 23 21 14 18 22 18 23 22 28 27 24 24 26 24 23 25 26 26 27 27 26 24 23 24 25 25 25 25 26 26 25 28 28 30 32 34 36 36 34 35 34
16 18 16 13 13 18 18 15 22 25 22 28 23 22 32 23 21 22 24 27 28 26 27 28 27 26 27 27 27 27 27 28 29 28 27 27 28 29 31 33 34 32 30 31
22 19 18 16 15 21 18 16 17 17 23 20 18 19 14 17 22 23 25 27 30 30 28 27 28 29 30 30 30 31 30 30 30 30 29 28 28 27 28 30 31 32 28 29
21 13 17 14 14 3 11 10 13 17 24 27 22 11 19 24 26 29 29 28 27 25 24 27 28 30 32 35 34 33 32 31 31 31 31 30 30 29 27 27 28 30 28 26
16 16 11 16 9 5 8 8 12 7 10 9 19 17 22 24 29 31 30 30 29 28 27 30 35 38 41 40 36 37 35 34 33 33 32 31 30 29 28 27 26 27 28 26
16 14 12 17 13 11 12 14 13 13 14 17 20 22 24 25 28 30 31 33 35 35 36 37 35 36 35 37 41 40 39 36 35 34 34 33 31 29 29 27 26 26 26 26
16 13 11 8 8 12 15 13 13 15 17 18 19 20 22 25 28 32 34 37 39 40 40 40 39 36 40 43 44 43 43 41 38 37 36 35 34 31 30 27 27 27 25 26
15 15 11 6 6 17 13 11 18 21 19 22 16 18 27 31 29 29 31 35 37 40 43 43 46 45 43 43 44 41 41 42 40 39 40 40 37 35 31 29 28 27 27 26
16 17 13 12 12 22 14 16 21 22 22 21 21 30 42 40 31 32 36 41 41 38 41 40 40 41 42 40 38 40 39 40 41 42 42 42 41 38 35 33 31 29 29 27
15 16 15 15 20 15 16 15 20 23 23 28 35 39 39 37 35 38 39 40 39 40 42 44 43 43 41 41 41 37 37 39 39 40 41 41 41 40 38 36 34 34 32 30
Wind_Direction
222 237 239 243 250 260 256 263 271 256 246 251 274 290 304 306 309 313 310 314 317 311 313 315 320 328 321 329 332 352 342 326 329 330 324 320 303 303 306 313 312 308 291 289
228 235 242 255 275 270 270 259 284 238 244 260 284 291 293 297 300 297 300 306 306 310 308 303 312 323 330 334 341 342 340 340 339 332 322 294 291 302 308 307 303 300 298 290
226 248 247 272 271 267 272 298 310 304 256 261 274 279 292 294 292 294 302 315 311 304 315 316 314 317 326 336 340 344 339 337 334 328 307 301 299 313 316 317 319 312 308 305
247 247 250 265 283 308 232 320 307 291 284 273 278 288 288 295 291 292 307 313 311 309 301 310 310 311 327 335 336 339 343 337 334 329 328 326 324 321 321 325 322 319 312 308
260 267 261 262 268 284 288 283 283 293 280 284 292 295 298 296 299 305 317 317 297 309 308 305 308 318 327 337 341 342 340 340 338 332 332 327 324 326 327 329 327 324 320 315
270 250 260 274 262 285 285 298 288 286 284 276 291 303 300 293 293 299 303 317 297 296 307 303 316 323 332 337 339 338 337 338 336 330 329 330 329 329 332 332 329 325 325 323
263 258 268 280 293 289 292 294 291 296 300 300 302 298 313 296 302 300 300 301 284 292 297 310 321 323 327 331 332 338 341 340 333 334 332 328 331 334 335 335 331 328 328 326
286 262 283 290 291 289 285 288 292 295 294 296 297 288 300 287 288 291 321 293 290 277 294 305 316 315 321 330 337 339 339 338 334 331 328 332 336 336 339 336 335 333 330 329
304 301 302 292 285 292 294 291 290 294 289 288 293 290 291 291 290 285 284 282 302 285 297 313 316 316 325 333 333 336 340 335 334 336 338 338 338 338 340 342 338 339 336 333
292 291 294 300 290 297 299 292 287 289 282 283 281 284 292 284 300 304 269 281 293 300 293 308 313 318 324 325 331 340 339 338 338 336 337 340 341 343 345 343 342 344 337 336
295 292 297 298 291 287 285 286 280 287 280 284 278 309 297 272 268 289 294 292 286 297 303 305 310 316 321 321 330 333 339 341 340 344 347 347 347 346 348 345 347 341 339 343
302 304 304 297 286 290 296 278 286 273 281 280 283 323 296 282 295 294 294 289 283 301 304 298 307 312 317 318 326 330 340 347 351 354 353 352 351 350 351 349 344 343 342 352
303 300 297 289 288 287 294 288 279 267 272 280 276 298 299 294 303 288 287 290 296 303 291 289 298 306 312 319 321 331 340 346 350 353 354 354 355 352 352 349 343 344 349 358
303 297 291 291 294 288 292 281 272 275 280 273 271 276 294 289 283 280 287 295 299 292 286 286 294 301 308 319 318 329 337 342 346 351 354 354 356 352 352 348 343 351 354 2
302 302 293 289 284 284 278 260 269 277 279 241 260 265 274 288 298 301 298 292 292 286 284 288 294 302 311 317 317 321 328 333 338 344 348 350 352 351 352 348 346 354 355 4
301 301 309 317 303 286 259 254 255 261 267 267 253 273 271 276 286 302 299 292 290 281 286 285 289 299 305 308 311 308 314 321 327 333 338 345 348 349 351 349 348 355 353 1
327 310 296 302 302 273 251 257 253 270 270 275 265 268 267 279 274 293 294 296 290 281 282 277 280 290 298 300 304 304 303 308 314 321 328 337 341 346 347 349 349 353 351 354
336 334 325 324 291 276 278 274 278 268 270 275 257 276 268 262 282 291 293 292 291 287 285 282 282 287 290 291 295 299 303 304 308 313 319 326 331 339 344 345 349 349 350 349
337 320 328 347 313 296 281 273 274 268 273 267 266 277 284 292 287 293 289 288 286 290 286 275 276 283 288 293 296 295 298 301 304 307 311 316 320 329 337 340 344 346 347 345
330 330 333 346 6 309 268 256 305 272 275 251 267 306 295 293 299 292 290 292 295 292 288 287 289 291 294 294 290 297 290 292 296 299 303 307 313 318 326 332 336 340 342 339
328 332 326 349 7 348 325 327 317 334 326 256 293 309 282 281 287 292 299 300 294 288 290 293 299 298 297 295 291 292 293 288 290 293 295 298 304 309 314 320 326 330 332 335
327 327 317 325 324 332 336 336 331 322 306 293 291 294 295 295 295 295 294 292 287 285 289 295 298 298 297 297 293 291 288 285 283 287 290 293 295 300 304 308 314 318 322 327
324 324 335 329 340 341 341 335 336 326 312 306 303 307 306 302 297 295 294 291 289 289 292 295 295 299 301 299 297 286 283 282 277 281 284 285 287 290 293 297 302 307 311 315
318 326 306 299 287 334 313 309 315 314 313 302 304 323 322 311 299 294 295 296 295 294 293 293 293 292 291 294 292 288 278 276 274 278 282 283 284 284 286 288 292 296 299 302
311 319 328 285 248 323 318 313 327 339 332 323 296 310 316 315 301 293 298 298 294 292 294 295 296 294 292 289 292 292 286 279 277 280 284 285 283 282 283 285 285 286 288 292
319 317 306 305 279 285 311 330 323 317 310 306 307 304 307 309 310 309 310 310 304 296 294 298 299 300 298 295 294 292 287 277 273 275 276 275 279 281 280 280 281 283 282 283
Height
5884 5885 5884 5885 5886 5886 5886 5886 5885 5883 5881 5879 5879 5878 5877 5876 5874 5872 5870 5866 5864 5859 5855 5854 5852 5852 5848 5841 5834 5830 5829 5827 5823 5818 5815 5808 5808 5804 5797 5790 5782 5779 5774 5769
5882 5881 5883 5884 5884 5883 5882 5880 5880 5879 5876 5876 5875 5874 5873 5872 5869 5867 5866 5865 5861 5857 5852 5849 5848 5846 5842 5837 5832 5827 5824 5818 5814 5810 5806 5804 5800 5796 5789 5781 5775 5770 5764 5759
5880 5881 5881 5882 5882 5881 5879 5877 5876 5876 5873 5872 5870 5869 5868 5866 5863 5862 5860 5859 5855 5851 5848 5845 5843 5841 5837 5832 5826 5823 5819 5814 5809 5806 5803 5800 5794 5789 5782 5775 5768 5761 5754 5749
5880 5879 5880 5879 5879 5877 5876 5875 5873 5872 5870 5868 5867 5864 5864 5863 5858 5856 5856 5854 5851 5847 5843 5840 5839 5836 5832 5828 5824 5819 5813 5809 5804 5799 5795 5791 5786 5780 5774 5765 5759 5752 5747 5741
5878 5876 5876 5875 5875 5874 5872 5871 5870 5870 5867 5865 5865 5862 5861 5859 5854 5852 5851 5849 5846 5843 5838 5835 5833 5830 5826 5821 5816 5812 5807 5802 5798 5793 5789 5786 5780 5772 5765 5758 5751 5743 5735 5728
5875 5873 5872 5873 5872 5871 5869 5868 5866 5865 5863 5860 5859 5858 5855 5854 5850 5850 5848 5845 5842 5838 5834 5831 5828 5824 5819 5815 5811 5806 5803 5799 5794 5790 5786 5780 5773 5767 5759 5750 5742 5734 5725 5715
5871 5871 5869 5868 5868 5867 5865 5863 5860 5858 5856 5854 5853 5849 5850 5846 5844 5845 5843 5840 5839 5834 5832 5828 5824 5820 5816 5814 5809 5804 5799 5795 5790 5785 5779 5774 5768 5760 5753 5744 5734 5726 5715 5704
5867 5867 5865 5864 5863 5861 5860 5858 5857 5850 5848 5848 5847 5843 5845 5839 5840 5840 5837 5835 5833 5830 5829 5825 5821 5818 5815 5811 5804 5800 5796 5791 5786 5782 5776 5769 5761 5754 5745 5738 5727 5717 5707 5694
5862 5862 5861 5858 5855 5855 5853 5851 5849 5845 5841 5839 5840 5839 5837 5833 5833 5833 5835 5833 5828 5826 5825 5820 5817 5814 5810 5805 5801 5797 5792 5788 5783 5775 5768 5762 5756 5749 5739 5729 5721 5709 5697 5682
5859 5857 5856 5853 5851 5849 5846 5844 5841 5839 5833 5831 5831 5832 5831 5829 5829 5823 5829 5827 5825 5823 5820 5817 5814 5810 5806 5802 5798 5793 5788 5783 5777 5772 5767 5760 5751 5742 5733 5724 5714 5701 5691 5678
5853 5852 5850 5847 5844 5841 5839 5836 5834 5830 5828 5825 5825 5829 5824 5822 5824 5824 5822 5821 5820 5818 5815 5813 5811 5807 5803 5799 5796 5791 5786 5781 5776 5769 5762 5754 5746 5738 5729 5719 5708 5701 5689 5673
5843 5841 5839 5839 5837 5834 5831 5829 5827 5824 5823 5821 5820 5823 5820 5820 5819 5818 5817 5817 5816 5814 5810 5809 5806 5803 5800 5796 5793 5788 5783 5778 5772 5765 5758 5749 5742 5733 5724 5715 5708 5700 5687 5667
5837 5833 5830 5828 5829 5826 5824 5822 5821 5818 5818 5817 5815 5819 5816 5816 5814 5813 5813 5812 5811 5808 5807 5806 5803 5800 5797 5792 5789 5783 5778 5773 5768 5761 5754 5746 5738 5730 5722 5713 5706 5698 5683 5665
5826 5824 5822 5818 5817 5817 5816 5815 5815 5813 5813 5811 5813 5814 5814 5812 5811 5809 5808 5807 5804 5803 5801 5800 5798 5796 5792 5787 5783 5777 5772 5767 5763 5756 5750 5742 5734 5728 5719 5711 5705 5694 5681 5666
5819 5816 5813 5811 5808 5808 5807 5808 5807 5806 5805 5806 5811 5810 5810 5809 5806 5803 5802 5801 5799 5796 5795 5792 5790 5788 5784 5780 5776 5772 5767 5763 5758 5753 5747 5740 5733 5726 5717 5710 5702 5692 5681 5669
5812 5809 5807 5804 5800 5798 5799 5800 5800 5800 5801 5805 5804 5804 5803 5803 5799 5797 5796 5795 5792 5789 5787 5785 5783 5781 5778 5775 5771 5767 5763 5759 5754 5749 5745 5738 5731 5724 5715 5708 5699 5691 5681 5672
5806 5803 5801 5799 5795 5792 5792 5793 5795 5795 5798 5799 5799 5797 5796 5796 5794 5793 5791 5788 5786 5783 5781 5779 5777 5775 5772 5768 5765 5762 5758 5754 5750 5745 5740 5734 5728 5721 5713 5706 5698 5691 5682 5673
5804 5800 5795 5792 5790 5788 5788 5787 5787 5788 5790 5791 5794 5794 5791 5788 5788 5786 5784 5782 5779 5777 5774 5772 5769 5768 5765 5762 5758 5755 5752 5747 5743 5739 5733 5729 5724 5718 5710 5703 5696 5690 5683 5675
5803 5799 5794 5789 5786 5783 5784 5784 5784 5786 5787 5786 5788 5788 5787 5784 5783 5781 5779 5776 5773 5770 5765 5764 5762 5760 5757 5753 5750 5746 5744 5741 5736 5732 5728 5723 5719 5713 5707 5701 5694 5688 5682 5676
5801 5796 5793 5790 5783 5782 5782 5781 5782 5783 5778 5779 5781 5781 5781 5779 5776 5776 5772 5771 5767 5763 5760 5758 5755 5752 5749 5745 5742 5738 5734 5732 5729 5725 5721 5717 5713 5709 5703 5697 5691 5686 5681 5675
5800 5796 5793 5789 5786 5783 5783 5781 5780 5781 5782 5779 5778 5778 5775 5773 5771 5767 5766 5762 5759 5756 5752 5749 5747 5743 5740 5737 5733 5729 5726 5723 5721 5717 5713 5709 5706 5702 5699 5693 5688 5683 5678 5673
5798 5795 5793 5789 5786 5784 5782 5780 5780 5779 5777 5775 5774 5773 5770 5768 5765 5762 5759 5756 5753 5750 5747 5743 5738 5734 5730 5726 5723 5719 5715 5713 5710 5707 5704 5702 5698 5695 5692 5688 5683 5678 5674 5670
5795 5792 5789 5788 5784 5782 5780 5778 5776 5776 5774 5772 5770 5769 5766 5762 5758 5755 5752 5749 5745 5741 5736 5732 5728 5725 5721 5716 5712 5709 5704 5701 5698 5696 5694 5692 5690 5687 5684 5681 5677 5673 5669 5665
5789 5787 5785 5784 5782 5780 5779 5777 5775 5771 5769 5766 5765 5763 5759 5756 5751 5747 5742 5738 5734 5730 5726 5722 5718 5715 5711 5708 5701 5696 5692 5689 5688 5686 5684 5681 5680 5678 5675 5671 5668 5666 5663 5659
5786 5784 5783 5779 5778 5777 5774 5772 5769 5766 5763 5760 5758 5753 5750 5747 5743 5738 5734 5728 5724 5719 5715 5711 5706 5702 5698 5693 5689 5685 5683 5681 5679 5676 5674 5672 5669 5667 5664 5662 5659 5657 5654 5652
5783 5781 5780 5778 5775 5773 5771 5768 5765 5762 5759 5756 5752 5748 5744 5739 5735 5729 5723 5717 5712 5708 5704 5700 5695 5691 5687 5683 5679 5675 5672 5668 5666 5664 5661 5658 5656 5655 5652 5650 5649 5646 5644 5642